WB7UVH Weather Reports


time (UTC)temp
F
wind
direction
speed
knots
gust
knots
rain 1hr
in
rain 24hr
in
rain mn
in
humidity
%
barometer
mb
20260506044504 60 272 0.0 0.0 0.00 0.00 0.00 82 1021.1
20260506041504 60 272 0.0 0.0 0.00 0.00 0.00 82 1020.8
20260506040005 60 272 0.0 0.0 0.00 0.00 0.00 82 1020.7
20260506034504 61 272 0.0 0.0 0.00 0.00 0.00 81 1020.4
20260506033005 61 272 0.0 0.0 0.00 0.00 0.00 81 1020.2
20260506031504 61 272 0.0 0.0 0.00 0.00 0.00 80 1020.3
20260506030004 62 272 0.0 0.0 0.00 0.00 0.00 79 1020.1
20260506023004 62 271 0.0 2.6 0.00 0.00 0.00 77 1019.9
20260506021504 62 235 0.9 1.7 0.00 0.00 0.00 75 1019.8
20260506020004 63 234 0.0 1.7 0.00 0.00 0.00 75 1020.0
20260506014504 63 234 0.0 2.6 0.00 0.00 0.00 75 1019.8
20260506013004 63 244 0.9 2.6 0.00 0.00 0.00 73 1019.8
20260506011505 63 245 0.9 2.6 0.00 0.00 0.00 76 1019.7
20260506010004 63 244 0.0 2.6 0.00 0.00 0.00 75 1019.7
20260506004505 63 270 0.9 2.6 0.00 0.00 0.00 74 1019.8
20260506001504 63 233 0.0 2.6 0.00 0.00 0.00 74 1019.9
20260506000004 64 252 0.9 4.3 0.00 0.00 0.00 73 1020.0
20260505234505 64 197 0.0 6.1 0.00 0.00 0.00 71 1020.1
20260505231504 64 241 0.9 7.0 0.00 0.00 0.00 72 1020.1
20260505230004 63 244 0.9 5.2 0.00 0.00 0.00 72 1020.1
20260505224504 63 264 0.0 1.7 0.00 0.00 0.00 76 1020.3
20260505223004 63 215 2.6 6.1 0.00 0.00 0.00 72 1020.3
20260505221504 63 200 0.9 4.3 0.00 0.00 0.00 73 1020.3
20260505220005 63 222 2.6 6.1 0.00 0.00 0.00 71 1020.5
20260505214504 62 252 0.9 6.1 0.00 0.00 0.00 74 1020.6
20260505213004 62 253 1.7 7.8 0.00 0.00 0.00 73 1020.6
20260505211504 62 258 1.7 8.7 0.00 0.00 0.00 75 1020.7
20260505210005 62 249 2.6 7.8 0.00 0.00 0.00 73 1020.9
20260505204504 62 230 2.6 7.8 0.00 0.00 0.00 73 1021.0
20260505203005 62 254 2.6 6.1 0.00 0.00 0.00 74 1021.0
20260505201504 64 257 1.7 5.2 0.00 0.00 0.00 71 1021.0
20260505200005 64 256 0.0 7.0 0.00 0.00 0.00 71 1021.0
20260505193004 61 276 0.0 2.6 0.00 0.00 0.00 76 1021.2
20260505191504 60 237 0.0 2.6 0.00 0.00 0.00 76 1021.3
20260505184504 60 254 0.0 2.6 0.00 0.00 0.00 77 1021.3
20260505183004 60 217 0.0 1.7 0.00 0.00 0.00 78 1021.3
20260505181504 59 229 0.0 5.2 0.00 0.00 0.00 80 1021.2
20260505180004 59 295 0.0 0.9 0.00 0.00 0.00 80 1021.3
20260505174504 58 290 0.0 1.7 0.00 0.00 0.00 81 1021.2
20260505173004 58 292 0.0 2.6 0.00 0.00 0.00 82 1021.1
20260505171504 57 266 1.7 2.6 0.00 0.00 0.00 81 1021.1
20260505170004 57 238 0.9 2.6 0.00 0.00 0.00 82 1021.1
20260505164504 57 257 0.9 4.3 0.00 0.00 0.00 83 1021.0
20260505163004 57 229 1.7 2.6 0.00 0.00 0.00 83 1020.9
20260505161504 56 252 1.7 2.6 0.00 0.00 0.00 84 1020.9
20260505153004 56 271 2.6 4.3 0.00 0.00 0.00 84 1020.9
20260505124504 56 226 1.7 7.0 0.00 0.00 0.00 83 1019.7
20260505123005 57 252 0.9 2.6 0.00 0.00 0.00 82 1019.6
20260505121504 57 246 0.9 2.6 0.00 0.00 0.00 82 1019.6
20260505120005 57 246 0.0 6.1 0.00 0.00 0.00 82 1019.6
20260505114504 57 249 0.9 4.3 0.00 0.00 0.00 82 1019.6
20260505113004 57 236 1.7 6.1 0.00 0.00 0.00 81 1019.6
20260505111505 57 246 1.7 7.0 0.00 0.00 0.00 81 1019.5
20260505101504 58 249 0.9 7.0 0.00 0.00 0.00 79 1019.0
20260505094504 58 250 1.7 5.2 0.00 0.00 0.00 79 1019.0
20260505093004 59 299 0.9 2.6 0.00 0.00 0.00 79 1018.9
20260505083005 60 275 2.6 11.3 0.00 0.00 0.00 75 1018.6
20260505080004 61 291 4.3 10.4 0.00 0.00 0.00 74 1018.2
20260505074504 62 270 2.6 7.8 0.00 0.00 0.00 74 1017.9
20260505073004 63 225 1.7 6.1 0.00 0.00 0.00 73 1017.7
20260505070004 64 241 2.6 4.3 0.00 0.00 0.00 73 1017.1
20260505064504 65 272 1.7 6.1 0.00 0.00 0.00 72 1016.9
20260505063004 65 261 0.9 7.0 0.00 0.00 0.00 72 1016.8
20260505054504 66 254 0.0 8.7 0.00 0.00 0.00 76 1016.3
20260505051504 65 254 0.9 2.6 0.00 0.00 0.00 78 1016.1